User: anonymous   Login
Location: Unspecified
(0.0000°N, 0.0000°E)
Time: 15:30:10
(UTC+00:00)
Language:

PROITERES - Orbit

View from above orbital plane
View from above orbital plane
View from above satellite
View from above satellite

Ground track
Ground track

The orbit data is extracted from the following two-line orbital elements,

1 38756U 12047B   17324.13174224  .00000125  00000-0  25842-4 0  9997
2 38756  98.2899  92.6878 0011902 350.7337   9.3672 14.76422305279859
Epoch (UTC): 20 November 2017 03:09:42
Eccentricity: 0.0011902
inclination: 98.2899°
perigee height: 632 km
apogee height: 649 km
right ascension of ascending node: 92.6878°
argument of perigee: 350.7337°
revolutions per day: 14.76422305
mean anomaly at epoch: 9.3672°
orbit number at epoch: 27985

The dashed part of the orbit path shows where the satellite is in the earth's shadow,  

DLR